Wind_Speed
18 18 22 27 25 22 18 17 23 28 25 23 19 20 23 24 24 21 18 18 15 16 17 13 15 19 18 17 16 18 18 14 13 12 10 9 7 8 8 8 9 9 10 10 10 11 10 10 11 10 10 10 10 9 9 10 10 10 10 10 10 9 9 8 8 8 8 8 8 9 10 11 13 14 14 15 16 17 18 18 19 20 22 23 23 24
20 21 25 29 24 21 17 15 20 23 23 26 23 23 26 24 25 24 21 21 18 15 18 16 16 19 17 17 19 19 19 18 17 15 12 7 6 7 8 8 9 10 11 12 12 12 12 11 11 10 10 9 9 9 9 9 10 10 9 9 9 8 7 7 7 6 6 7 8 10 11 12 14 15 16 17 18 19 20 21 22 23 24 24 23 23
24 25 26 29 23 20 17 15 21 21 21 26 25 24 28 24 21 25 24 23 22 17 19 19 17 20 17 16 19 19 20 21 17 16 14 10 9 8 8 8 9 11 12 12 12 13 12 12 11 10 10 10 10 10 11 10 9 9 9 8 8 6 5 5 5 4 5 6 7 9 11 12 13 14 16 17 17 19 21 22 23 23 24 24 22 21
27 27 25 25 23 23 22 20 23 25 24 25 25 24 27 25 20 28 29 25 25 19 19 21 18 21 19 17 20 18 19 21 18 16 16 14 13 9 8 8 8 10 10 12 13 13 14 13 12 11 10 10 10 10 9 8 8 7 8 8 6 5 4 3 2 1 3 4 6 7 10 11 12 13 14 14 15 17 19 20 21 21 22 22 20 18
26 26 24 25 24 23 25 23 24 27 26 24 24 21 20 22 21 29 30 24 24 19 18 23 20 24 26 21 22 20 20 23 20 19 19 17 16 13 11 10 9 10 11 11 13 14 14 14 12 12 11 10 9 8 7 6 6 6 6 7 6 6 6 5 4 4 6 7 9 9 10 11 11 12 13 13 13 14 15 16 18 19 20 19 18 17
26 23 23 27 28 25 25 25 25 25 25 25 25 23 19 19 16 24 30 26 26 22 22 26 19 20 28 26 24 24 25 25 22 23 23 21 19 18 17 15 12 13 12 12 13 14 13 13 13 13 13 11 10 8 7 7 7 7 7 7 8 7 6 5 5 7 9 11 13 14 14 14 14 13 13 13 13 13 12 13 15 16 17 16 16 16
27 24 24 27 28 28 25 26 26 23 23 26 23 20 21 22 15 17 31 29 28 25 26 29 19 16 26 28 27 28 28 26 24 25 26 24 23 21 21 20 17 15 15 14 14 14 14 14 14 14 14 12 11 9 8 9 9 10 9 9 9 7 5 4 6 8 11 13 16 18 19 18 18 17 15 14 14 13 12 12 13 14 15 15 15 14
28 26 27 27 27 30 29 27 26 24 24 26 21 15 19 27 21 17 28 29 27 25 26 33 27 20 28 32 31 31 30 28 27 28 27 26 25 23 23 23 19 17 17 16 16 16 15 15 15 14 14 13 13 11 10 11 11 12 12 9 8 5 4 4 6 9 11 14 17 20 20 21 20 19 18 16 15 13 12 12 12 12 13 13 13 13
28 29 28 27 27 29 28 28 27 26 26 26 23 16 15 24 25 20 27 28 24 23 24 34 31 18 22 33 32 30 32 32 32 31 29 29 28 26 26 25 22 19 17 16 18 17 16 15 15 15 16 15 15 13 12 12 13 13 12 9 6 4 4 4 6 9 12 14 17 19 20 21 21 20 20 18 17 15 13 12 12 11 11 11 12 12
26 29 30 29 30 27 26 28 25 23 23 22 26 23 17 22 24 18 18 16 10 10 12 26 32 15 12 27 32 33 36 35 35 36 34 31 30 29 29 28 26 23 20 18 18 18 18 16 16 17 17 17 17 15 14 14 15 14 12 9 6 4 3 3 5 8 11 13 16 18 20 21 21 21 20 20 19 18 17 16 15 14 13 13 13 13
25 26 28 30 31 28 27 30 27 22 20 20 23 21 17 20 22 18 18 15 7 3 5 11 22 14 7 21 32 32 29 25 27 36 37 33 31 30 31 31 28 25 23 22 20 18 18 18 18 19 19 18 19 18 17 17 17 16 13 10 7 5 3 1 3 6 8 11 14 16 19 20 21 22 21 21 21 20 19 18 17 17 16 16 16 16
29 25 26 27 26 25 27 30 29 25 23 23 22 19 16 18 19 17 14 10 3 4 8 9 12 13 8 17 28 26 25 23 22 27 32 34 34 32 32 31 28 26 25 25 24 22 20 20 21 22 20 19 21 20 19 20 19 17 14 11 9 7 5 2 0 3 5 8 11 14 17 20 22 23 23 22 22 22 22 21 21 20 19 18 18 17
31 29 26 25 23 25 28 27 23 24 26 24 24 24 18 9 7 7 4 3 3 5 10 14 15 17 17 20 26 28 26 24 21 20 22 28 33 33 34 32 28 27 27 28 28 26 25 23 22 23 22 20 21 20 21 21 20 18 16 14 11 9 7 5 3 2 3 5 8 12 16 19 21 23 24 24 24 24 25 24 24 23 22 21 20 19
28 29 29 27 23 24 28 27 22 24 27 27 26 25 15 4 4 2 1 1 5 9 14 20 18 17 20 20 22 25 22 20 21 22 21 21 24 27 32 32 30 29 29 29 30 29 28 27 25 25 23 22 21 20 21 22 21 19 18 17 14 12 11 9 7 6 6 6 7 10 14 18 20 22 24 25 25 26 26 26 26 26 25 23 22 22
22 23 31 31 26 25 26 26 24 23 26 28 27 24 16 7 4 3 4 5 7 11 16 20 16 16 19 15 12 12 10 12 18 22 20 18 19 23 27 30 32 31 30 30 32 31 30 28 27 27 25 24 23 21 21 23 23 21 20 19 17 15 14 13 11 10 10 9 9 10 12 16 19 21 23 25 26 27 27 28 28 28 27 26 25 23
23 23 31 30 26 28 27 27 28 27 27 29 29 28 22 14 9 9 10 14 16 13 12 16 17 19 20 12 6 6 3 4 11 16 19 21 24 26 27 29 31 31 30 31 33 33 31 30 29 29 27 26 25 23 22 22 23 23 22 22 21 19 18 17 15 14 14 13 12 12 13 15 17 20 22 24 26 27 29 30 30 30 29 28 27 24
23 22 31 34 28 25 25 29 34 29 23 25 29 29 24 20 17 14 12 17 20 10 4 11 14 13 14 13 13 12 6 6 15 19 22 24 27 28 26 23 23 28 31 31 33 34 32 31 30 30 29 27 25 25 24 23 22 22 22 23 23 23 22 21 19 18 17 17 16 16 15 16 17 19 21 23 25 27 28 30 31 32 32 30 27 24
22 17 24 35 30 23 21 28 37 31 21 23 27 23 23 24 25 19 8 8 11 4 2 9 14 13 13 14 15 18 13 10 19 21 17 19 24 26 23 17 15 24 31 31 32 32 31 31 31 31 31 29 27 27 26 24 22 22 23 23 23 25 25 24 22 21 20 20 20 20 19 19 19 19 20 22 24 26 28 30 32 33 33 31 28 23
23 18 20 30 27 24 25 28 33 31 26 26 21 20 23 22 23 22 12 4 4 2 2 7 13 16 16 16 17 19 19 17 23 21 12 14 21 21 21 16 11 19 28 31 31 31 32 32 32 32 33 32 31 30 29 28 26 25 25 25 24 25 27 27 26 23 23 23 24 23 22 21 21 21 21 22 24 27 29 31 32 34 34 31 27 22
25 21 18 27 29 27 31 34 33 29 28 26 21 22 24 18 18 21 16 10 7 3 1 4 8 7 8 15 19 23 25 24 24 19 11 12 15 14 16 15 11 15 20 24 27 29 30 30 31 33 33 34 33 31 31 32 31 29 27 27 26 26 28 29 27 24 24 26 27 27 26 24 23 22 23 24 25 27 29 31 32 34 33 30 25 20
31 27 20 24 31 30 33 36 35 30 26 27 25 26 25 20 18 16 15 14 9 4 3 1 4 6 6 10 20 24 25 22 19 16 14 15 13 12 15 14 13 14 13 17 20 23 26 26 27 29 31 33 35 35 35 34 34 33 30 29 29 29 29 28 26 24 25 27 29 29 29 28 26 23 24 25 26 27 29 31 33 33 33 29 24 19
33 30 23 25 33 33 32 33 34 30 26 25 26 28 25 22 18 11 10 15 13 8 6 4 2 4 7 12 22 21 19 18 18 17 17 17 11 10 15 14 11 10 10 14 16 18 22 22 23 26 28 31 34 34 34 33 33 34 33 32 31 31 31 30 26 25 25 26 28 29 31 31 29 25 25 27 27 27 29 31 33 34 35 31 25 19
34 28 23 30 37 33 29 29 31 30 26 24 23 24 24 23 20 11 7 14 17 13 11 7 3 7 10 14 19 21 21 20 19 17 14 13 10 9 12 12 10 9 10 12 14 15 18 20 22 24 26 29 30 29 30 32 33 33 32 33 33 32 33 32 30 27 25 26 27 29 31 32 31 27 27 28 26 27 29 31 33 36 37 33 27 21
38 31 23 25 34 35 32 30 33 31 28 28 27 25 26 26 25 16 7 13 19 14 13 10 3 9 14 14 15 18 18 15 13 12 10 9 10 11 10 10 11 11 10 11 12 13 15 18 21 23 26 27 26 25 27 30 32 33 32 32 33 33 33 33 33 32 28 27 28 29 31 32 31 28 28 27 25 26 29 31 34 37 37 32 27 23
35 31 23 15 17 24 25 23 29 35 31 29 29 28 29 30 27 21 13 11 15 15 16 11 5 12 19 19 18 17 14 10 9 10 11 10 12 13 12 10 11 11 10 10 10 12 14 18 20 22 25 24 22 22 25 28 30 31 31 31 32 33 32 31 33 34 32 30 30 31 32 33 31 28 28 27 25 26 29 31 34 35 33 28 25 23
33 28 25 18 8 11 15 14 20 33 33 29 29 28 28 27 25 23 19 13 10 16 20 14 11 20 22 20 19 18 15 12 11 9 10 13 15 14 11 9 9 10 11 10 10 12 14 18 21 23 25 24 23 23 25 27 29 29 30 32 33 33 32 31 32 34 34 34 33 32 31 30 28 27 28 26 25 27 29 31 32 31 27 23 21 20
35 29 27 29 21 18 23 22 22 28 31 28 29 32 30 26 22 21 23 22 16 15 20 18 14 21 24 22 19 17 16 15 14 11 11 13 14 12 10 9 9 10 12 13 14 15 16 18 21 24 26 26 26 25 26 29 30 30 31 33 34 34 34 33 32 33 35 36 37 34 29 25 24 26 28 25 24 27 28 29 28 25 22 19 18 17
33 30 28 31 27 22 22 19 19 26 29 26 27 31 31 28 26 25 28 31 27 19 18 19 18 19 23 25 23 22 20 17 13 12 13 14 11 8 8 8 9 12 14 16 18 20 22 22 22 23 26 28 28 27 29 31 31 32 32 34 36 36 36 36 35 35 35 36 36 34 29 25 25 27 26 23 24 27 27 26 25 22 19 18 17 17
28 24 27 29 27 25 20 13 13 22 28 26 23 25 28 29 28 29 28 27 24 20 19 21 26 28 27 26 26 23 18 14 13 13 16 16 13 11 11 9 9 13 15 17 20 23 26 27 25 23 23 25 27 29 31 32 32 33 33 36 38 37 38 39 38 37 37 36 35 33 30 28 27 27 24 22 24 26 26 25 24 20 17 16 16 16
26 16 19 24 24 24 24 19 15 18 22 24 24 22 23 27 28 29 29 26 23 21 21 22 28 32 31 29 26 21 16 15 15 17 17 15 14 15 14 12 12 14 16 19 22 24 26 28 29 27 24 24 27 29 32 33 33 33 33 36 38 38 40 41 39 39 40 38 36 34 31 29 30 27 22 21 24 25 25 25 23 18 16 15 15 16
29 19 14 19 18 16 17 19 23 24 21 20 21 20 18 19 21 22 25 27 28 27 25 21 22 26 28 29 26 19 20 23 23 22 18 15 16 18 18 19 20 20 20 22 24 26 27 27 28 27 26 25 26 28 32 33 33 34 35 37 38 40 42 41 40 41 42 41 38 33 29 29 29 24 20 21 23 24 24 23 20 17 15 15 15 17
25 20 14 15 16 15 16 16 21 29 29 25 25 26 23 20 19 20 21 23 28 32 32 28 27 25 23 24 23 20 24 27 24 20 18 18 19 22 25 26 25 23 24 25 25 26 27 27 27 27 26 26 26 27 29 30 32 36 39 39 39 41 42 41 43 43 44 45 38 28 25 27 23 19 19 21 22 23 23 20 17 16 16 16 17 19
19 17 16 13 10 13 21 22 22 23 26 25 28 29 24 19 19 18 15 15 18 23 29 33 34 28 21 25 27 25 24 23 20 18 17 18 20 22 22 21 20 22 25 27 27 28 29 28 27 26 26 26 25 25 26 28 31 35 38 39 39 39 40 43 46 47 47 45 33 23 24 23 17 15 18 20 21 22 19 15 14 15 16 17 19 21
16 15 14 15 10 10 19 25 25 18 10 11 20 22 12 8 13 13 10 14 17 13 9 14 21 20 21 26 28 27 24 20 17 15 13 14 16 16 16 16 20 24 26 26 27 28 28 28 29 30 29 28 26 25 26 28 30 32 34 35 37 39 41 44 48 50 49 41 27 21 20 16 13 16 17 18 19 17 15 14 15 16 17 19 20 22
13 16 11 11 12 10 13 15 13 9 4 5 13 17 10 6 10 12 12 14 15 11 7 7 15 16 18 20 18 18 20 18 15 14 12 12 14 16 17 19 22 23 22 21 21 20 19 22 25 27 29 29 29 28 27 28 29 30 32 34 37 41 43 45 51 52 43 30 20 16 14 12 14 17 16 16 16 14 13 16 17 17 19 21 22 24
5 13 11 8 8 9 9 7 4 6 9 12 15 18 17 15 14 15 14 11 5 3 4 5 8 9 9 9 8 9 12 13 13 14 15 16 15 17 18 17 18 18 16 15 16 17 18 19 20 21 24 27 29 29 28 29 30 31 34 36 39 43 43 42 46 44 31 19 15 12 10 11 14 15 14 13 13 13 15 17 17 18 20 22 24 25
2 7 12 12 10 9 9 9 10 14 18 20 19 16 17 18 17 14 14 13 7 3 3 2 2 6 4 3 4 9 11 10 9 10 13 12 11 13 13 13 14 15 15 16 19 20 20 21 21 22 22 25 26 27 29 31 31 32 33 34 35 39 37 33 32 28 19 14 12 9 8 11 12 12 12 13 14 16 17 17 18 20 22 24 26 27
8 8 11 11 10 11 9 8 9 9 12 19 24 23 21 21 18 16 17 19 15 9 4 3 5 8 9 6 7 12 13 9 6 7 9 10 9 9 7 8 13 17 19 21 22 21 21 23 25 25 22 23 25 28 33 35 32 28 30 32 31 28 24 20 17 16 14 12 8 7 7 10 11 12 14 16 18 20 20 20 20 23 25 27 28 29
16 18 19 17 13 12 12 9 7 6 6 8 12 16 18 17 15 16 17 17 14 8 5 8 7 5 9 12 14 16 15 11 6 6 8 9 11 8 5 9 15 19 22 23 22 24 27 29 31 28 25 27 29 29 30 31 28 26 28 30 26 17 12 11 13 16 13 8 6 7 8 11 13 15 17 20 23 25 26 25 25 27 29 30 30 31
22 23 26 27 23 20 19 16 14 14 14 11 6 5 8 10 13 15 11 7 9 7 4 7 7 3 7 13 15 14 14 10 7 7 9 9 10 11 11 12 13 17 20 22 23 27 31 32 32 29 28 30 32 32 25 18 17 19 19 18 14 8 6 10 14 13 10 7 7 8 11 14 16 18 21 24 26 28 29 29 29 30 31 32 33 33
18 15 17 23 25 24 23 23 20 17 18 21 17 13 12 10 11 15 11 6 10 9 4 4 6 7 8 12 13 10 9 9 9 11 13 12 9 9 12 13 12 14 19 23 27 30 32 31 30 29 28 28 28 28 21 11 8 12 11 8 7 5 8 11 11 10 9 7 8 12 15 17 19 21 24 26 27 29 31 33 33 31 32 34 34 34
16 11 11 14 16 16 17 20 20 16 16 18 18 17 19 16 11 12 12 11 15 13 7 7 9 10 8 10 12 11 11 13 14 14 14 14 14 14 15 14 12 14 20 26 31 33 33 31 31 32 31 29 25 22 17 9 5 5 6 7 8 8 9 9 10 9 7 6 10 15 17 19 21 23 25 27 28 31 32 34 35 33 33 35 36 36
15 15 14 13 11 12 13 12 11 9 11 16 17 16 17 15 12 13 15 15 16 15 14 13 12 13 11 11 13 15 14 15 16 16 16 17 18 20 20 19 18 21 25 28 30 32 32 31 31 32 32 30 25 19 13 9 8 7 7 9 10 9 7 6 6 6 7 9 14 17 19 21 23 25 28 29 31 33 35 36 36 35 36 38 39 36
10 13 15 16 15 11 5 1 2 2 1 6 13 16 15 12 9 12 15 15 14 17 20 19 16 15 15 14 15 18 20 20 20 19 19 18 19 22 23 23 23 27 29 29 28 30 30 29 28 29 30 30 26 17 10 10 12 13 12 12 11 8 5 6 8 9 11 14 17 19 21 24 26 28 30 31 33 36 37 38 39 39 39 40 38 33
6 4 4 8 10 8 7 7 5 6 7 7 2 5 13 16 14 15 18 18 15 15 16 17 17 17 18 16 15 17 19 21 21 22 23 23 23 25 26 25 25 27 28 28 29 30 30 30 30 30 30 30 26 19 13 14 16 15 14 14 12 9 7 9 11 13 15 17 19 22 25 27 28 30 31 33 36 38 39 40 41 41 40 39 35 31
8 3 4 6 5 9 15 14 9 9 14 16 15 14 14 17 18 18 19 20 19 17 15 16 18 20 21 21 19 18 19 21 23 24 27 28 27 26 27 27 28 28 27 27 29 31 32 33 33 32 32 31 26 20 17 17 17 17 17 16 14 11 11 13 14 15 19 20 21 23 25 25 27 29 31 34 36 37 38 38 38 36 35 33 31 30
8 3 7 10 6 7 12 12 8 7 12 15 15 15 16 18 17 16 16 17 16 17 18 19 19 19 18 18 19 19 21 23 24 25 26 27 26 27 28 30 31 29 27 27 29 31 33 34 33 32 30 26 20 17 18 19 20 20 21 20 17 16 17 17 16 17 21 22 23 24 25 26 28 31 32 33 33 33 34 34 33 32 30 29 29 30
9 6 7 11 9 7 8 7 5 9 10 8 8 8 9 13 14 12 13 14 14 14 14 15 15 15 16 17 18 19 19 20 22 23 25 26 27 27 28 28 28 27 26 27 29 30 32 32 33 33 31 25 19 17 18 20 22 23 23 21 20 20 19 18 17 19 22 24 25 27 29 31 32 32 32 31 29 29 30 30 30 30 29 28 28 28
10 9 8 10 9 7 7 7 8 11 14 14 13 12 12 11 10 10 12 13 14 14 14 14 14 14 15 17 19 20 20 20 22 24 25 25 25 26 26 25 24 24 24 26 28 28 29 30 30 30 29 26 23 21 20 21 22 23 21 20 19 17 17 18 19 21 23 25 28 30 32 33 33 32 31 29 27 27 28 28 28 28 27 27 27 26
7 7 6 8 10 8 7 8 9 12 16 17 15 12 13 14 13 13 14 16 17 18 18 17 16 16 17 20 22 23 21 21 23 25 25 25 24 25 25 25 24 23 23 24 25 27 29 30 29 27 26 25 25 25 26 26 26 25 20 17 15 15 17 19 21 23 25 27 29 31 32 32 32 32 31 29 27 26 26 26 27 27 26 27 27 26
8 10 9 8 10 10 10 10 10 11 16 17 13 10 12 15 17 18 20 23 23 21 20 19 19 19 19 20 23 25 24 24 24 25 26 25 25 26 26 26 26 24 22 21 22 24 26 26 26 25 25 25 26 28 29 31 31 25 17 13 14 16 18 20 21 24 26 28 30 31 30 30 30 30 29 28 27 26 25 25 25 26 26 27 27 26
Wind_Direction
197 215 214 212 216 220 235 243 210 193 189 187 194 201 197 199 194 185 191 186 183 184 177 181 178 170 172 174 176 182 195 212 217 220 219 212 219 218 217 215 208 204 200 207 208 203 203 198 200 208 208 208 210 217 220 221 227 228 231 234 232 239 246 255 256 252 258 261 265 272 277 282 281 281 282 283 286 287 286 286 285 285 287 291 296 299
207 217 216 211 213 219 228 237 218 207 200 191 193 202 199 200 196 188 184 179 187 190 173 172 175 174 175 174 178 182 196 216 223 233 242 230 233 231 218 213 209 205 200 205 209 205 204 200 202 209 214 218 217 221 228 231 236 237 237 238 236 238 238 243 248 254 270 272 274 279 280 283 284 284 284 285 287 288 287 287 288 289 291 295 298 299
213 219 216 210 212 218 223 236 234 233 226 205 197 205 201 195 193 191 185 176 180 181 170 175 175 174 177 179 186 185 193 213 223 237 252 248 244 244 225 211 207 211 206 203 208 206 205 203 204 212 217 223 227 228 234 238 241 240 236 232 230 228 221 223 235 259 284 288 287 288 290 291 289 286 285 286 287 285 284 284 286 288 290 292 294 296
213 216 212 208 215 225 230 236 235 235 243 233 215 209 200 190 187 188 183 176 180 186 190 193 183 177 180 181 192 191 191 206 216 233 250 251 251 250 235 228 216 217 216 209 212 208 205 206 207 212 217 225 232 233 234 232 229 225 217 212 208 197 176 167 177 334 339 328 321 311 303 299 296 293 292 292 290 285 284 285 286 286 286 288 293 295
216 214 208 210 217 230 236 232 234 238 248 250 240 234 210 193 197 192 183 179 183 190 192 186 175 179 186 183 189 194 194 201 209 221 234 241 246 244 237 241 231 222 223 218 217 212 207 210 210 212 215 220 229 231 223 208 201 200 192 183 173 156 135 115 94 58 35 20 8 354 338 327 317 308 304 302 296 291 289 286 284 285 286 290 292 293
218 212 210 216 219 228 239 232 228 237 250 255 255 257 231 205 212 194 182 180 181 187 189 179 169 180 190 189 189 193 195 201 207 213 221 227 232 237 239 242 234 219 217 219 220 218 214 214 213 214 215 215 222 226 210 195 193 192 183 172 163 151 139 118 80 50 33 24 17 11 3 354 344 333 325 316 310 307 299 288 283 284 288 290 291 291
219 213 212 220 223 222 234 240 230 225 241 251 253 258 240 229 240 191 176 178 183 193 196 190 188 178 182 191 195 195 196 199 205 208 215 222 228 236 242 243 239 222 214 213 215 217 217 217 218 220 220 216 219 222 208 200 199 189 179 172 164 152 137 103 56 37 24 15 12 11 8 3 356 349 343 333 327 323 313 301 293 289 289 289 289 289
218 215 213 219 226 224 226 235 235 225 228 241 247 259 243 232 242 213 190 194 200 206 198 192 196 182 182 199 203 200 197 193 201 207 213 225 231 235 239 242 244 234 222 216 215 218 216 219 224 225 225 220 217 219 212 206 201 189 181 175 168 152 117 70 42 28 18 13 12 11 8 5 1 355 350 344 339 335 324 313 304 295 289 287 287 287
216 217 212 213 223 230 228 227 235 230 222 230 234 238 238 230 243 239 206 203 210 210 197 190 194 185 189 204 203 200 199 196 202 208 212 220 226 230 234 237 243 242 232 219 217 221 220 221 225 224 224 223 219 220 217 211 204 196 191 187 180 157 111 66 39 27 20 16 13 10 7 5 2 358 354 350 346 343 337 329 321 313 304 299 297 295
219 220 216 213 215 226 229 222 231 229 215 224 230 239 251 233 240 245 212 214 229 220 202 191 194 193 193 202 198 196 202 206 211 213 211 216 223 228 230 232 237 242 240 231 226 226 224 225 227 224 223 223 223 222 218 214 209 205 204 200 197 183 142 74 42 30 22 18 13 7 4 2 0 358 356 354 352 349 346 341 335 329 322 318 315 313
223 221 223 222 214 220 226 219 224 226 220 228 234 247 258 237 242 251 236 248 277 266 266 211 206 215 193 189 193 201 218 229 224 215 211 216 223 225 226 228 232 237 243 243 242 239 231 227 226 225 224 224 226 224 218 216 214 212 212 210 208 207 193 112 47 32 18 13 11 4 359 359 359 359 359 358 356 353 350 346 341 336 330 327 325 322
227 223 227 225 213 216 225 224 224 221 223 230 229 228 229 233 245 244 236 251 270 233 267 285 267 263 243 200 205 227 253 256 238 221 217 217 216 216 221 224 227 234 240 244 249 251 244 236 227 223 226 228 228 228 222 218 218 218 217 217 218 221 220 217 12 18 7 4 4 357 353 356 359 0 1 360 358 356 353 350 346 342 338 334 330 326
231 229 222 219 217 215 217 222 220 209 213 224 227 222 215 217 236 229 236 277 268 258 264 276 280 271 264 244 237 247 252 244 239 236 230 221 215 214 217 218 221 228 233 239 246 251 252 250 240 229 232 237 235 235 230 223 223 223 222 223 224 226 229 233 246 272 315 337 347 346 346 351 356 358 359 358 358 356 355 352 349 346 343 339 335 332
227 234 224 217 219 215 209 211 208 203 211 220 225 226 222 166 109 196 244 269 275 277 266 265 269 266 266 269 264 257 245 238 241 235 230 226 220 219 217 216 219 223 228 237 243 247 251 256 253 242 238 243 244 241 237 232 231 228 226 228 230 230 234 240 248 256 270 292 316 333 340 344 348 352 353 352 354 356 355 353 350 348 345 341 337 336
216 229 226 217 212 210 207 209 209 205 210 218 221 226 237 227 168 188 172 171 240 252 250 252 250 247 256 271 276 257 235 232 235 228 226 228 223 218 215 215 218 221 226 233 238 244 250 256 259 252 245 245 247 245 241 239 239 236 231 232 236 236 239 244 250 257 266 278 294 315 331 337 340 343 345 345 349 353 354 353 352 350 346 342 338 336
218 225 224 215 210 211 210 210 213 210 211 215 211 214 230 238 233 234 209 202 221 233 240 240 234 235 241 241 206 181 166 187 198 206 215 221 220 214 210 213 218 222 228 230 233 239 246 252 257 257 253 252 251 250 248 246 245 243 238 238 241 242 244 248 251 257 266 275 286 298 314 326 332 335 336 339 343 347 350 351 351 350 348 344 339 336
221 232 223 208 204 213 217 212 212 217 218 204 194 196 208 222 238 243 216 209 222 233 244 242 245 236 215 199 195 209 226 141 153 186 208 215 215 211 206 211 220 226 231 232 232 237 245 250 255 259 259 259 259 257 256 254 252 250 246 244 244 245 246 249 253 257 265 273 280 287 299 312 320 326 329 333 336 339 343 346 348 349 348 344 339 335
222 233 204 191 196 210 216 212 212 222 224 194 184 192 202 216 238 254 252 213 217 220 230 241 250 242 213 199 203 213 213 156 153 176 190 192 197 201 203 207 221 228 231 235 235 238 244 249 254 260 262 263 265 265 265 263 258 254 252 249 248 248 249 251 255 259 265 272 276 280 290 300 308 315 321 325 328 330 335 341 345 346 345 343 338 333
223 228 191 185 203 210 200 205 215 225 224 205 201 211 210 217 234 243 249 219 175 176 250 252 250 244 233 215 199 198 197 177 172 179 179 176 181 190 200 204 217 226 228 233 235 239 244 248 254 260 263 264 265 267 269 268 263 258 256 253 250 249 249 249 253 258 264 269 273 276 283 291 299 307 314 319 323 327 331 336 340 343 343 342 337 332
224 231 211 196 207 202 190 202 219 225 216 207 211 211 205 214 227 226 224 198 164 161 217 288 284 282 262 227 205 194 190 182 181 188 198 195 191 202 210 211 224 231 232 235 238 244 248 253 259 262 264 264 264 267 269 270 267 264 262 259 253 249 248 249 252 258 264 268 271 274 278 284 291 301 310 315 320 324 325 330 335 340 342 340 336 334
228 236 229 198 197 194 188 200 215 220 207 197 210 215 201 202 217 225 225 206 181 152 149 238 297 4 360 217 193 180 179 183 186 182 178 186 196 217 222 223 230 231 238 243 245 252 253 258 264 265 265 264 263 264 266 269 269 266 265 263 257 251 249 250 253 257 262 266 270 273 276 279 285 296 307 311 316 321 322 326 332 336 338 336 334 335
229 237 230 193 188 194 194 198 206 213 210 200 212 222 213 209 213 211 212 205 197 191 177 170 171 64 77 151 162 153 152 162 167 163 170 185 191 205 213 217 219 224 245 248 251 258 256 258 263 264 264 262 261 264 266 268 268 266 266 265 261 256 252 252 254 256 260 264 268 272 273 275 279 289 303 308 313 319 320 324 328 332 333 332 332 334
226 236 226 193 188 194 199 203 202 206 216 216 216 222 226 233 232 219 195 197 200 202 201 203 167 117 122 143 152 148 148 153 158 159 167 174 170 179 193 198 206 231 257 255 255 258 253 254 258 260 261 260 261 265 267 267 267 267 268 266 264 260 256 255 254 254 259 262 265 270 271 272 274 282 297 305 310 315 318 322 327 330 331 331 333 337
225 235 228 195 188 192 200 209 205 200 208 219 220 219 227 240 244 251 252 196 192 191 194 205 171 132 148 158 163 162 165 175 184 185 178 162 161 178 193 204 214 228 254 266 267 263 255 255 258 259 259 259 261 263 264 265 266 266 266 265 265 262 259 257 253 251 255 258 262 268 271 271 270 277 292 301 306 311 316 322 327 329 330 330 334 340
222 231 227 195 177 188 200 209 201 192 197 215 221 214 215 225 234 247 256 210 190 191 195 197 154 149 159 164 168 167 168 180 187 192 195 188 189 196 204 216 222 231 255 270 264 259 259 260 263 265 265 262 263 264 264 265 266 267 266 263 262 260 259 257 253 250 252 256 261 266 270 271 270 277 291 300 305 311 317 324 327 329 330 331 335 341
219 225 223 213 186 174 193 212 204 192 193 208 220 220 219 220 222 230 239 237 211 198 206 206 153 149 159 165 167 166 167 167 164 179 194 193 199 207 214 227 238 250 265 270 261 261 264 266 268 272 272 268 265 265 266 266 266 267 266 263 260 259 259 257 254 253 253 255 259 265 270 271 270 280 293 300 306 313 319 324 328 329 328 329 332 335
218 222 221 219 211 183 187 209 220 204 193 196 209 223 234 236 232 227 227 236 238 208 206 212 181 160 167 176 181 189 195 186 180 198 206 192 193 205 220 241 260 268 275 279 277 274 271 271 274 275 274 270 267 267 268 268 267 266 264 261 258 257 257 257 256 257 256 256 258 263 268 269 271 285 296 301 307 313 319 324 326 326 322 323 327 330
216 217 216 220 215 196 192 206 213 204 200 199 202 213 228 240 246 242 225 224 231 221 205 209 208 197 192 194 199 201 199 194 199 213 208 197 198 200 204 226 253 266 274 279 279 279 279 278 281 280 275 269 267 267 267 267 266 265 262 260 258 258 259 258 257 258 259 257 258 261 262 263 274 288 295 299 304 310 318 323 324 322 320 322 327 332
215 211 208 217 216 208 213 218 204 201 206 214 220 220 219 220 235 248 239 225 225 227 223 219 220 224 224 218 212 207 209 225 233 219 202 201 214 218 213 226 255 268 272 272 273 276 279 281 282 283 281 275 269 266 266 266 264 261 259 258 257 256 257 257 257 259 260 256 255 257 255 261 278 290 292 296 304 311 318 322 322 320 320 321 324 327
224 220 201 210 210 209 220 228 228 223 217 221 236 246 233 215 220 238 244 243 245 250 254 241 225 227 232 232 228 226 232 236 218 197 191 198 217 225 225 238 263 277 277 274 276 277 278 281 282 282 281 277 273 269 265 264 263 260 258 258 256 254 254 255 255 258 258 255 254 256 258 269 283 287 288 296 305 313 318 320 319 317 315 316 316 317
224 229 209 213 216 213 219 226 236 243 243 238 241 253 250 228 227 239 245 250 251 252 259 252 233 232 234 234 237 228 209 204 199 200 211 227 243 249 250 252 261 274 276 271 273 276 276 278 280 279 279 277 277 273 267 265 265 263 258 256 254 249 248 252 254 256 257 255 253 256 266 278 282 282 288 300 307 314 317 315 313 311 311 312 313 315
212 219 217 220 228 233 230 238 247 241 238 246 250 253 251 241 244 253 253 257 254 248 248 242 236 244 239 224 222 208 194 198 204 212 226 238 248 255 256 255 258 273 284 279 274 274 276 277 277 277 276 275 276 276 271 266 262 259 256 254 251 244 241 247 252 254 255 252 248 254 272 279 278 280 293 303 308 312 312 309 308 308 310 312 315 319
193 210 222 217 224 242 235 245 264 245 224 228 235 238 244 251 262 266 265 280 277 259 250 240 236 241 226 202 203 204 198 203 213 223 235 248 256 256 254 256 266 280 288 284 277 274 273 272 273 272 271 273 275 275 272 265 260 261 264 266 264 257 248 243 245 246 245 243 245 261 273 272 274 285 295 302 306 307 305 305 309 310 312 316 319 323
182 197 221 223 226 249 239 246 268 266 232 224 224 220 228 275 289 282 286 316 327 328 293 236 219 214 200 192 198 204 204 209 219 224 231 244 250 245 243 258 276 283 282 278 276 275 272 267 266 267 269 272 272 269 268 266 265 269 273 275 276 270 258 247 242 242 243 245 252 263 264 265 279 289 295 300 302 299 298 306 313 314 317 322 323 326
187 187 196 211 217 233 239 247 268 268 246 251 238 230 235 289 300 284 281 305 326 355 33 129 152 160 175 181 184 189 193 198 200 198 202 219 235 248 261 272 279 282 282 281 282 284 281 274 269 268 268 268 267 265 266 268 270 271 271 270 267 260 253 247 241 240 245 253 255 250 253 271 286 290 296 298 294 293 300 310 316 317 320 324 324 326
190 198 210 224 227 232 237 240 266 291 289 281 265 256 256 269 287 290 295 313 342 45 54 99 133 146 159 172 191 199 200 206 210 216 230 240 252 271 281 281 280 282 286 291 295 299 300 297 292 286 274 264 261 263 266 267 267 266 264 263 259 251 246 245 245 247 252 253 240 238 259 279 283 288 295 293 289 296 306 312 315 317 320 324 324 325
233 223 230 239 242 236 244 261 270 281 286 281 278 276 270 272 280 285 293 304 303 282 316 344 239 236 215 170 224 237 238 242 239 241 251 261 280 293 288 271 270 280 289 294 296 298 302 303 299 294 283 273 269 267 265 264 264 266 265 263 263 261 257 256 259 261 252 228 227 249 269 270 277 287 292 291 292 301 310 316 319 321 324 326 326 325
238 240 234 241 244 232 239 271 276 276 279 272 272 278 277 273 273 273 276 283 287 288 271 214 209 226 223 218 248 253 249 241 226 237 258 270 284 305 313 287 279 286 291 292 290 290 296 297 293 291 289 286 278 267 259 257 257 262 264 261 262 265 266 264 258 241 218 209 237 272 268 266 280 289 293 298 303 309 318 324 326 327 327 328 327 324
229 231 232 237 245 241 241 251 252 255 267 260 262 270 268 258 254 262 269 270 269 273 249 234 238 239 232 231 235 236 231 220 220 247 265 264 257 259 285 299 296 294 291 289 287 289 295 297 297 300 298 290 286 280 269 260 256 259 261 262 264 266 259 239 214 203 204 225 266 283 281 284 291 296 304 312 317 321 325 327 328 328 326 325 325 322
222 222 226 230 232 234 236 239 247 252 250 243 239 265 267 250 240 249 266 279 264 256 242 242 237 192 205 217 215 216 219 221 231 234 236 250 255 250 254 274 299 303 292 286 286 289 293 296 300 305 300 292 295 298 289 275 276 279 274 270 274 269 220 194 187 195 218 255 286 298 299 298 300 306 315 321 324 323 323 323 324 323 322 320 320 319
232 228 230 229 223 218 218 224 236 246 245 246 249 252 257 255 234 229 234 263 266 255 237 226 202 162 177 200 202 197 194 200 214 221 226 241 252 243 246 265 297 307 292 284 285 287 290 294 298 302 298 293 298 301 294 291 312 307 290 271 261 225 183 178 189 215 243 265 287 295 297 300 305 310 315 318 318 317 317 317 316 316 315 313 313 312
243 248 257 246 230 225 228 226 230 237 239 240 241 238 241 245 234 218 221 246 259 253 230 200 179 165 177 196 193 182 173 184 204 215 221 232 241 245 250 261 281 294 289 285 286 287 290 294 296 298 299 299 299 298 294 291 293 278 254 238 227 210 201 203 212 230 249 265 277 283 290 296 302 305 308 309 308 309 310 310 308 307 306 305 306 307
243 246 255 261 247 244 255 250 240 247 249 246 246 240 233 231 230 228 226 229 230 220 207 201 185 174 187 201 199 195 190 192 203 212 220 229 242 253 255 255 265 282 290 289 288 288 289 290 293 295 298 300 298 294 289 275 262 253 241 232 228 227 234 243 249 257 262 267 274 278 284 290 296 300 301 301 302 303 303 302 301 299 298 300 303 304
238 244 248 253 246 235 236 224 163 105 26 264 257 246 230 214 209 214 211 206 197 187 191 201 197 186 188 192 194 200 204 205 211 221 229 235 247 257 262 263 270 282 291 292 288 284 283 285 289 292 295 295 291 285 271 251 252 256 247 235 233 236 244 259 270 275 274 275 278 282 287 292 296 296 296 297 297 297 295 294 294 294 296 299 301 302
183 211 229 228 228 208 150 117 137 145 107 80 71 217 215 214 212 205 201 203 201 187 184 196 206 208 208 207 206 209 213 218 227 237 247 254 263 269 273 277 283 289 292 289 282 278 278 281 286 290 292 289 282 274 264 255 252 250 238 225 221 223 237 260 269 272 274 275 278 284 289 293 295 295 295 294 293 291 290 290 292 294 296 297 298 299
137 166 211 183 161 153 140 121 118 146 132 117 115 126 157 186 198 200 200 205 209 207 207 213 218 220 222 222 223 225 232 241 249 255 262 268 272 276 279 284 291 293 287 278 276 278 280 283 288 291 290 285 278 269 259 247 235 227 221 218 217 222 239 256 263 266 270 273 278 283 285 286 288 292 293 291 289 288 289 291 292 293 292 292 295 298
139 159 208 195 189 181 158 130 116 150 141 129 135 143 149 161 174 185 193 199 205 211 218 221 219 223 232 239 244 249 254 259 262 265 269 273 277 283 286 290 296 296 285 275 277 283 286 288 289 289 286 279 271 264 260 253 244 238 231 224 219 224 238 251 261 269 274 276 279 282 282 282 286 291 292 292 291 290 288 288 290 289 289 292 296 298
195 195 188 178 176 184 178 159 176 207 205 186 182 194 184 169 170 183 196 203 208 213 223 229 231 240 253 260 264 270 273 275 276 277 280 282 285 288 288 289 292 294 289 283 282 284 288 291 291 289 282 271 259 255 257 255 251 246 240 234 230 233 242 254 263 269 273 275 279 282 284 287 290 292 292 292 291 288 287 288 290 292 293 296 298 299
197 200 201 197 190 177 173 181 189 205 215 209 203 218 224 206 192 195 203 212 223 234 249 258 259 263 271 273 274 280 287 289 288 286 285 285 285 285 283 282 284 287 291 290 288 287 288 289 289 284 274 262 253 245 237 234 234 237 239 240 239 244 258 270 273 274 277 280 282 284 287 289 291 292 292 294 293 291 291 293 295 295 296 297 299 300
215 207 197 201 207 199 192 195 191 196 204 200 190 197 211 215 224 229 225 228 241 256 268 273 274 278 283 281 279 281 286 290 289 287 285 283 282 281 281 281 281 283 288 294 294 290 286 284 281 271 257 253 251 244 236 234 234 234 234 236 244 257 267 271 274 278 282 285 288 290 292 293 296 298 301 303 301 297 295 295 294 293 295 296 298 299
240 240 231 223 225 219 213 214 214 213 215 214 210 212 216 223 237 248 247 244 249 261 271 276 278 280 282 284 285 288 291 292 291 288 285 283 282 282 282 281 280 282 289 297 296 288 281 277 271 258 249 251 252 249 247 245 240 235 236 247 262 270 269 271 279 286 291 296 299 301 302 304 307 308 308 306 303 299 295 292 292 293 294 296 297 298
Height
3163 3164 3164 3164 3164 3163 3163 3166 3168 3170 3171 3172 3174 3176 3177 3178 3178 3180 3182 3184 3186 3187 3188 3189 3189 3190 3193 3195 3196 3197 3198 3197 3198 3199 3199 3200 3200 3200 3200 3201 3202 3202 3203 3204 3205 3205 3205 3206 3207 3207 3207 3208 3208 3209 3209 3210 3210 3211 3211 3212 3213 3213 3214 3214 3215 3215 3215 3215 3214 3214 3214 3214 3213 3212 3212 3211 3210 3209 3208 3207 3207 3206 3206 3205 3205 3204
3162 3161 3162 3163 3163 3163 3162 3163 3166 3169 3170 3169 3170 3171 3173 3175 3175 3176 3179 3180 3183 3185 3186 3188 3189 3189 3191 3194 3195 3197 3197 3197 3197 3198 3198 3199 3200 3200 3200 3201 3201 3201 3202 3203 3204 3204 3205 3205 3206 3206 3207 3207 3208 3208 3208 3209 3209 3210 3210 3211 3211 3212 3213 3213 3213 3214 3214 3214 3213 3213 3213 3213 3212 3211 3210 3209 3208 3207 3206 3205 3204 3203 3202 3202 3202 3201
3160 3159 3160 3162 3163 3163 3163 3162 3164 3166 3168 3169 3168 3168 3170 3172 3173 3174 3177 3178 3180 3182 3184 3186 3188 3189 3190 3192 3193 3195 3196 3196 3196 3196 3197 3199 3199 3199 3200 3200 3200 3200 3201 3202 3202 3203 3204 3204 3205 3205 3206 3206 3207 3207 3207 3208 3208 3209 3209 3210 3210 3211 3212 3212 3213 3213 3213 3212 3212 3212 3211 3211 3210 3210 3209 3208 3207 3205 3204 3203 3202 3201 3200 3200 3199 3198
3157 3157 3160 3162 3162 3163 3163 3162 3163 3164 3164 3166 3166 3167 3167 3168 3170 3172 3174 3175 3176 3179 3180 3182 3186 3188 3189 3190 3191 3193 3194 3195 3195 3195 3196 3197 3198 3198 3199 3199 3199 3199 3200 3201 3201 3202 3203 3203 3204 3204 3205 3206 3206 3207 3207 3207 3207 3208 3209 3209 3210 3210 3211 3211 3212 3212 3212 3211 3211 3210 3209 3209 3208 3208 3207 3206 3205 3204 3203 3201 3200 3199 3198 3197 3197 3196
3156 3157 3160 3161 3161 3161 3162 3162 3163 3162 3162 3162 3163 3165 3166 3166 3167 3168 3171 3173 3175 3177 3178 3179 3185 3186 3186 3187 3188 3190 3191 3192 3192 3192 3193 3194 3195 3197 3197 3197 3198 3199 3199 3199 3200 3201 3201 3202 3203 3203 3204 3205 3206 3206 3206 3207 3207 3207 3208 3208 3209 3209 3210 3210 3211 3211 3211 3210 3209 3208 3208 3207 3206 3205 3205 3204 3203 3202 3201 3200 3198 3197 3196 3195 3195 3194
3155 3158 3159 3159 3159 3160 3160 3161 3162 3162 3161 3161 3161 3163 3164 3165 3165 3166 3168 3171 3174 3175 3174 3175 3181 3184 3183 3185 3186 3187 3188 3188 3189 3189 3189 3191 3192 3193 3195 3195 3196 3197 3197 3198 3199 3199 3200 3201 3202 3202 3203 3203 3204 3205 3206 3206 3206 3207 3207 3207 3208 3208 3209 3209 3210 3210 3209 3209 3208 3207 3206 3205 3204 3203 3202 3201 3201 3200 3200 3198 3197 3196 3195 3194 3194 3193
3152 3156 3157 3157 3158 3159 3159 3158 3160 3162 3161 3160 3160 3161 3161 3162 3164 3165 3166 3168 3169 3169 3169 3169 3174 3179 3181 3182 3182 3183 3184 3186 3187 3186 3186 3188 3189 3190 3191 3192 3193 3195 3196 3196 3197 3198 3198 3199 3200 3200 3201 3202 3203 3204 3205 3205 3206 3206 3206 3207 3207 3208 3208 3208 3208 3208 3208 3207 3207 3205 3204 3203 3201 3200 3200 3199 3198 3198 3197 3196 3196 3195 3194 3194 3193 3192
3150 3153 3154 3155 3155 3156 3157 3156 3157 3160 3160 3159 3159 3160 3160 3160 3163 3165 3166 3164 3163 3165 3166 3166 3167 3172 3176 3177 3178 3180 3182 3184 3185 3185 3184 3184 3185 3186 3187 3188 3190 3192 3193 3194 3195 3195 3197 3198 3198 3199 3200 3201 3202 3203 3203 3204 3205 3205 3206 3206 3206 3207 3207 3206 3206 3206 3206 3206 3205 3204 3203 3201 3200 3199 3198 3197 3197 3196 3196 3195 3194 3194 3193 3193 3192 3191
3148 3149 3150 3153 3153 3152 3154 3154 3155 3157 3157 3157 3158 3158 3160 3161 3161 3164 3164 3163 3163 3164 3165 3165 3165 3168 3170 3171 3175 3178 3180 3181 3182 3181 3181 3181 3181 3182 3183 3184 3186 3188 3190 3192 3193 3194 3195 3196 3197 3198 3199 3200 3200 3201 3202 3203 3204 3204 3205 3205 3205 3205 3205 3205 3205 3205 3205 3204 3204 3203 3203 3201 3200 3199 3197 3196 3195 3195 3194 3194 3193 3192 3192 3191 3190 3190
3146 3146 3148 3150 3150 3150 3151 3152 3153 3155 3156 3157 3157 3157 3159 3161 3160 3162 3163 3164 3164 3164 3164 3164 3163 3164 3167 3169 3172 3176 3177 3176 3176 3177 3178 3178 3179 3180 3180 3182 3183 3185 3187 3189 3191 3193 3194 3195 3195 3196 3197 3198 3199 3200 3201 3202 3202 3203 3204 3204 3204 3204 3204 3205 3204 3204 3204 3203 3203 3203 3202 3201 3200 3199 3197 3196 3195 3193 3192 3192 3191 3191 3190 3189 3188 3187
3143 3144 3145 3147 3147 3149 3150 3150 3151 3153 3155 3156 3157 3157 3157 3157 3158 3160 3160 3161 3162 3163 3163 3164 3162 3162 3164 3166 3167 3169 3169 3169 3170 3173 3175 3176 3176 3177 3178 3179 3181 3182 3184 3186 3188 3190 3192 3194 3194 3195 3195 3196 3197 3198 3199 3200 3201 3201 3202 3202 3203 3203 3203 3203 3203 3203 3203 3203 3203 3203 3202 3201 3200 3198 3197 3196 3194 3193 3192 3191 3190 3189 3188 3187 3186 3185
3140 3142 3142 3143 3145 3147 3147 3147 3149 3152 3153 3154 3155 3157 3156 3155 3156 3157 3156 3157 3160 3161 3160 3161 3162 3161 3161 3162 3162 3162 3162 3163 3165 3167 3169 3170 3172 3174 3176 3177 3179 3180 3182 3184 3185 3187 3189 3191 3192 3192 3193 3194 3195 3196 3197 3198 3199 3200 3200 3201 3201 3201 3201 3202 3202 3202 3202 3202 3202 3203 3202 3201 3199 3197 3196 3195 3193 3192 3191 3189 3188 3187 3186 3185 3184 3183
3136 3137 3139 3140 3142 3144 3144 3145 3147 3149 3150 3152 3153 3155 3155 3154 3156 3156 3155 3155 3156 3157 3158 3159 3160 3158 3156 3157 3157 3157 3159 3160 3161 3162 3164 3166 3169 3171 3174 3176 3177 3178 3180 3181 3182 3183 3185 3186 3189 3190 3190 3191 3193 3194 3195 3196 3197 3198 3199 3199 3200 3200 3200 3200 3201 3201 3201 3202 3202 3202 3201 3200 3198 3197 3196 3194 3193 3191 3190 3188 3187 3186 3185 3183 3182 3181
3134 3134 3136 3138 3139 3140 3141 3142 3143 3145 3147 3149 3150 3151 3152 3152 3156 3158 3157 3158 3157 3155 3155 3158 3159 3157 3154 3153 3152 3153 3155 3157 3157 3160 3163 3166 3168 3170 3172 3174 3175 3176 3178 3179 3180 3181 3182 3183 3185 3187 3188 3189 3190 3192 3193 3194 3195 3196 3197 3198 3198 3199 3199 3199 3199 3200 3201 3201 3201 3201 3200 3199 3198 3196 3195 3194 3193 3191 3189 3188 3186 3185 3183 3182 3181 3179
3132 3130 3130 3133 3135 3136 3138 3140 3141 3144 3145 3146 3147 3149 3149 3150 3153 3156 3156 3157 3158 3155 3155 3157 3157 3154 3153 3152 3151 3149 3152 3155 3157 3159 3163 3166 3168 3169 3171 3173 3174 3174 3176 3178 3179 3179 3180 3181 3182 3184 3186 3187 3188 3189 3191 3192 3193 3194 3195 3195 3196 3197 3197 3197 3198 3198 3199 3199 3199 3199 3198 3198 3197 3195 3194 3193 3192 3191 3189 3187 3186 3184 3183 3181 3179 3178
3129 3127 3127 3132 3132 3133 3137 3139 3140 3142 3143 3143 3146 3147 3147 3148 3150 3152 3152 3153 3155 3154 3154 3154 3152 3151 3151 3151 3150 3149 3151 3154 3157 3160 3162 3163 3165 3168 3170 3172 3172 3172 3174 3175 3177 3177 3178 3179 3180 3181 3183 3184 3186 3187 3188 3190 3191 3192 3193 3193 3194 3195 3195 3195 3196 3196 3197 3197 3197 3197 3196 3196 3195 3194 3193 3192 3191 3189 3188 3186 3185 3183 3182 3180 3178 3176
3125 3124 3124 3128 3130 3131 3134 3136 3137 3139 3140 3139 3142 3143 3145 3148 3150 3150 3151 3150 3151 3153 3152 3150 3149 3149 3149 3150 3149 3148 3149 3151 3154 3158 3159 3160 3163 3166 3168 3169 3170 3170 3171 3173 3174 3175 3176 3178 3178 3179 3180 3182 3183 3184 3186 3187 3189 3190 3191 3191 3192 3192 3193 3193 3193 3194 3194 3195 3195 3194 3194 3194 3193 3193 3192 3191 3190 3189 3187 3186 3184 3182 3180 3179 3177 3175
3123 3122 3121 3124 3128 3129 3132 3134 3134 3137 3139 3137 3138 3142 3146 3149 3148 3149 3150 3149 3150 3151 3149 3147 3148 3147 3147 3147 3147 3146 3147 3149 3152 3155 3157 3158 3161 3163 3165 3167 3168 3168 3169 3171 3172 3173 3174 3175 3176 3177 3177 3179 3180 3181 3183 3185 3187 3188 3188 3189 3189 3190 3190 3191 3191 3192 3192 3192 3192 3192 3192 3191 3191 3191 3190 3189 3189 3188 3186 3184 3182 3180 3179 3177 3175 3174
3122 3122 3120 3122 3125 3127 3130 3132 3132 3134 3137 3137 3137 3140 3144 3145 3145 3147 3149 3148 3148 3150 3148 3146 3146 3145 3144 3144 3145 3145 3145 3148 3151 3154 3155 3156 3159 3161 3164 3166 3167 3168 3169 3170 3170 3171 3172 3173 3174 3174 3175 3176 3177 3179 3180 3181 3183 3185 3186 3187 3187 3188 3188 3188 3189 3189 3189 3189 3189 3189 3189 3189 3189 3189 3188 3187 3186 3185 3183 3182 3180 3179 3177 3175 3173 3172
3120 3120 3119 3119 3121 3124 3127 3128 3128 3130 3133 3135 3137 3138 3139 3141 3142 3143 3144 3144 3145 3147 3148 3146 3144 3143 3142 3142 3143 3143 3144 3146 3150 3153 3155 3156 3158 3161 3163 3164 3165 3166 3167 3168 3169 3169 3170 3171 3171 3171 3172 3173 3174 3176 3177 3178 3180 3181 3183 3184 3185 3185 3185 3185 3186 3187 3187 3187 3187 3187 3187 3187 3187 3186 3186 3185 3183 3182 3181 3180 3179 3177 3175 3174 3172 3171
3119 3118 3116 3117 3119 3121 3121 3121 3124 3127 3130 3132 3134 3135 3137 3138 3138 3139 3140 3140 3140 3142 3145 3147 3147 3145 3142 3141 3142 3142 3144 3146 3149 3152 3155 3156 3158 3159 3161 3162 3164 3165 3166 3167 3167 3168 3168 3169 3169 3170 3170 3171 3172 3173 3174 3175 3176 3177 3179 3180 3181 3182 3182 3182 3183 3184 3184 3184 3184 3185 3185 3184 3185 3185 3184 3183 3181 3180 3179 3177 3176 3175 3174 3173 3172 3170
3115 3115 3115 3115 3117 3117 3117 3119 3123 3126 3128 3129 3130 3132 3134 3135 3136 3137 3138 3138 3138 3139 3142 3145 3147 3147 3144 3143 3143 3144 3146 3148 3150 3152 3154 3156 3157 3158 3159 3161 3163 3164 3166 3166 3166 3166 3166 3167 3168 3168 3168 3168 3169 3170 3170 3171 3172 3173 3175 3176 3177 3178 3179 3180 3181 3182 3182 3182 3182 3182 3182 3182 3182 3182 3182 3181 3179 3178 3177 3175 3173 3172 3171 3171 3170 3169
3112 3113 3112 3112 3112 3115 3117 3119 3121 3124 3127 3128 3129 3130 3132 3132 3133 3134 3135 3136 3136 3137 3139 3141 3145 3146 3146 3146 3146 3146 3147 3149 3150 3152 3153 3155 3156 3156 3158 3160 3162 3164 3164 3164 3165 3165 3165 3165 3165 3165 3165 3165 3166 3167 3167 3167 3168 3169 3171 3172 3173 3174 3175 3177 3178 3179 3178 3179 3179 3179 3179 3180 3180 3180 3180 3178 3177 3176 3175 3173 3171 3169 3167 3166 3166 3165
3109 3110 3110 3109 3110 3113 3116 3117 3118 3121 3125 3125 3126 3128 3129 3130 3131 3133 3133 3134 3134 3135 3137 3139 3143 3145 3145 3146 3146 3147 3148 3149 3150 3151 3152 3154 3154 3155 3157 3159 3160 3162 3163 3163 3164 3164 3164 3164 3163 3163 3162 3162 3163 3163 3163 3163 3164 3165 3167 3168 3168 3170 3172 3173 3174 3175 3175 3176 3176 3176 3177 3177 3178 3178 3178 3177 3175 3175 3173 3171 3168 3166 3164 3163 3162 3161
3104 3105 3107 3108 3109 3111 3114 3115 3115 3117 3120 3122 3123 3125 3127 3128 3130 3131 3132 3133 3133 3134 3135 3137 3140 3143 3144 3144 3145 3146 3147 3148 3150 3151 3152 3153 3153 3153 3155 3157 3158 3159 3160 3161 3161 3162 3162 3162 3161 3161 3160 3160 3161 3160 3160 3160 3160 3161 3162 3163 3164 3165 3168 3169 3170 3171 3172 3173 3173 3173 3174 3174 3175 3176 3176 3174 3173 3172 3170 3168 3165 3163 3161 3160 3159 3158
3100 3101 3103 3104 3105 3107 3109 3110 3112 3114 3116 3119 3121 3122 3124 3126 3127 3128 3130 3131 3132 3133 3134 3135 3137 3140 3142 3143 3143 3144 3145 3146 3148 3149 3150 3151 3152 3153 3154 3155 3156 3156 3157 3158 3158 3159 3159 3159 3159 3158 3158 3158 3158 3158 3158 3158 3157 3158 3159 3159 3160 3162 3164 3166 3167 3168 3169 3170 3170 3171 3172 3172 3173 3174 3173 3171 3169 3169 3167 3165 3163 3161 3160 3159 3159 3158
3098 3098 3099 3101 3102 3104 3106 3107 3110 3113 3115 3116 3118 3120 3121 3123 3124 3126 3128 3128 3130 3132 3132 3131 3134 3137 3139 3140 3140 3141 3142 3144 3146 3147 3147 3148 3150 3151 3152 3153 3153 3153 3154 3154 3155 3155 3156 3156 3156 3155 3155 3155 3154 3155 3155 3155 3155 3155 3155 3155 3156 3158 3160 3162 3164 3165 3167 3168 3168 3170 3170 3171 3172 3171 3170 3168 3166 3166 3165 3164 3162 3161 3159 3159 3159 3158
3094 3095 3097 3099 3101 3103 3105 3106 3108 3110 3112 3114 3115 3118 3119 3121 3123 3124 3124 3125 3128 3129 3129 3128 3130 3133 3134 3135 3137 3138 3139 3141 3143 3144 3145 3146 3147 3148 3149 3151 3151 3152 3152 3152 3152 3152 3152 3153 3153 3153 3152 3152 3152 3152 3151 3151 3152 3151 3151 3151 3152 3154 3156 3159 3161 3162 3164 3165 3166 3167 3168 3169 3170 3169 3167 3165 3164 3164 3163 3162 3161 3159 3158 3157 3156 3155
3091 3092 3094 3096 3098 3101 3103 3104 3106 3108 3110 3112 3114 3115 3117 3118 3120 3121 3122 3124 3126 3126 3127 3127 3127 3127 3129 3131 3133 3134 3136 3138 3139 3141 3142 3144 3145 3146 3147 3148 3149 3149 3150 3150 3150 3150 3149 3149 3150 3150 3149 3148 3148 3148 3148 3148 3148 3147 3147 3147 3148 3150 3152 3154 3157 3159 3160 3162 3163 3163 3165 3166 3167 3166 3165 3163 3162 3161 3160 3159 3158 3157 3156 3155 3155 3154
3089 3089 3091 3093 3095 3098 3100 3102 3104 3106 3108 3111 3112 3113 3115 3116 3117 3119 3120 3122 3123 3123 3125 3126 3124 3124 3126 3128 3130 3132 3134 3135 3137 3138 3140 3141 3142 3143 3144 3145 3146 3147 3147 3147 3147 3147 3146 3145 3145 3146 3146 3145 3144 3144 3144 3144 3144 3144 3144 3144 3144 3146 3148 3150 3153 3154 3155 3156 3158 3159 3161 3163 3162 3162 3161 3160 3159 3158 3157 3156 3155 3155 3155 3154 3154 3153
3086 3086 3089 3091 3092 3094 3096 3099 3102 3104 3107 3109 3110 3111 3113 3114 3116 3117 3118 3119 3120 3120 3121 3123 3123 3123 3125 3126 3128 3130 3131 3132 3134 3135 3136 3138 3139 3141 3142 3143 3144 3145 3145 3145 3144 3143 3143 3142 3141 3141 3142 3142 3141 3141 3141 3141 3142 3142 3140 3139 3140 3141 3144 3147 3149 3150 3150 3151 3153 3155 3158 3159 3158 3158 3158 3157 3156 3155 3154 3154 3153 3153 3153 3152 3152 3151
3083 3085 3087 3089 3090 3092 3094 3098 3101 3103 3106 3107 3108 3110 3112 3114 3115 3116 3117 3118 3118 3118 3118 3118 3118 3119 3123 3126 3126 3127 3128 3130 3131 3132 3133 3135 3136 3138 3139 3140 3142 3144 3144 3143 3141 3140 3139 3139 3138 3137 3138 3138 3138 3139 3139 3140 3140 3138 3135 3136 3137 3139 3143 3146 3147 3147 3147 3146 3149 3153 3156 3156 3155 3155 3155 3154 3153 3153 3152 3152 3151 3150 3150 3149 3149 3148
3080 3084 3086 3087 3089 3091 3094 3097 3099 3101 3102 3103 3105 3109 3110 3112 3113 3113 3115 3116 3116 3114 3113 3111 3111 3114 3119 3122 3123 3124 3125 3126 3127 3128 3129 3131 3133 3134 3135 3137 3139 3140 3140 3140 3138 3137 3136 3135 3135 3134 3135 3135 3136 3136 3137 3136 3136 3134 3132 3132 3134 3136 3139 3142 3143 3142 3141 3142 3148 3153 3154 3154 3153 3153 3153 3152 3151 3150 3150 3149 3149 3148 3147 3147 3146 3145
3079 3082 3085 3087 3089 3091 3095 3097 3098 3098 3099 3099 3103 3106 3107 3108 3109 3110 3112 3114 3113 3111 3109 3108 3110 3113 3116 3118 3119 3120 3121 3122 3123 3125 3126 3128 3130 3131 3133 3135 3136 3136 3137 3136 3135 3133 3132 3132 3133 3132 3132 3132 3132 3133 3133 3132 3131 3131 3130 3130 3131 3132 3134 3135 3135 3133 3135 3142 3149 3152 3151 3151 3152 3151 3151 3151 3149 3149 3148 3147 3146 3145 3144 3144 3143 3141
3078 3081 3084 3086 3089 3091 3094 3097 3098 3097 3096 3097 3100 3102 3104 3105 3107 3109 3112 3113 3113 3112 3111 3110 3110 3113 3116 3118 3119 3120 3120 3121 3122 3124 3125 3126 3128 3129 3131 3132 3133 3133 3133 3132 3131 3130 3129 3129 3129 3130 3129 3129 3128 3128 3129 3129 3129 3128 3127 3127 3128 3127 3128 3129 3128 3129 3136 3144 3148 3148 3148 3149 3150 3149 3149 3149 3147 3147 3146 3144 3143 3142 3142 3141 3140 3138
3078 3081 3083 3085 3089 3091 3093 3096 3097 3095 3094 3095 3097 3099 3101 3103 3105 3108 3111 3112 3113 3113 3113 3112 3112 3114 3117 3119 3120 3120 3121 3121 3121 3122 3123 3125 3127 3127 3128 3129 3130 3130 3129 3128 3127 3127 3127 3127 3127 3127 3126 3124 3124 3126 3127 3126 3125 3123 3120 3121 3122 3122 3124 3127 3128 3132 3139 3143 3144 3144 3145 3146 3147 3147 3147 3146 3145 3144 3143 3141 3140 3140 3139 3138 3136 3135
3078 3080 3082 3085 3088 3090 3092 3094 3095 3094 3093 3094 3096 3099 3100 3102 3105 3107 3109 3110 3112 3113 3112 3112 3112 3114 3117 3118 3118 3118 3118 3118 3119 3120 3122 3124 3125 3124 3125 3126 3127 3127 3127 3127 3126 3125 3125 3124 3123 3122 3122 3121 3122 3124 3123 3121 3119 3118 3117 3118 3118 3118 3121 3126 3130 3134 3138 3139 3140 3141 3142 3143 3144 3145 3144 3144 3143 3141 3140 3138 3137 3136 3135 3134 3133 3131
3080 3082 3084 3086 3087 3089 3092 3094 3095 3096 3095 3094 3096 3099 3101 3103 3105 3107 3108 3108 3110 3111 3110 3110 3111 3112 3114 3115 3116 3116 3117 3117 3119 3120 3122 3123 3124 3123 3123 3124 3125 3125 3125 3125 3124 3124 3123 3121 3119 3119 3120 3121 3120 3119 3117 3116 3116 3117 3115 3114 3114 3115 3118 3123 3128 3132 3134 3136 3137 3138 3139 3141 3142 3141 3141 3141 3139 3137 3136 3134 3133 3131 3130 3130 3129 3128
3083 3085 3087 3089 3089 3090 3093 3094 3095 3096 3096 3096 3098 3100 3101 3103 3105 3106 3106 3106 3107 3108 3108 3108 3108 3109 3110 3112 3113 3114 3115 3117 3119 3120 3121 3121 3122 3122 3123 3123 3123 3123 3123 3122 3121 3121 3120 3118 3117 3118 3120 3119 3115 3114 3116 3117 3117 3116 3114 3113 3114 3116 3119 3122 3126 3129 3132 3133 3134 3135 3136 3138 3138 3138 3137 3135 3133 3132 3130 3129 3128 3127 3126 3126 3126 3125
3082 3084 3087 3088 3088 3090 3093 3095 3094 3095 3096 3097 3099 3099 3100 3102 3103 3104 3104 3104 3105 3106 3106 3104 3105 3106 3108 3109 3111 3113 3114 3116 3118 3119 3119 3119 3120 3121 3121 3121 3122 3122 3121 3119 3118 3118 3118 3116 3116 3117 3117 3116 3113 3112 3115 3117 3116 3115 3114 3116 3117 3118 3119 3122 3125 3127 3129 3129 3130 3131 3132 3133 3133 3133 3131 3129 3127 3126 3126 3125 3124 3124 3123 3123 3122 3122
3079 3081 3085 3087 3087 3089 3092 3093 3093 3094 3095 3096 3097 3098 3099 3100 3100 3101 3102 3102 3103 3104 3103 3101 3102 3105 3107 3108 3110 3111 3112 3114 3115 3115 3116 3117 3118 3119 3119 3119 3120 3120 3118 3116 3116 3116 3116 3115 3115 3115 3114 3113 3112 3111 3110 3111 3112 3113 3113 3115 3116 3117 3118 3121 3124 3125 3126 3126 3126 3128 3129 3129 3129 3128 3126 3125 3124 3123 3123 3122 3121 3121 3121 3120 3119 3118
3078 3080 3084 3086 3086 3087 3089 3090 3091 3092 3093 3094 3094 3095 3097 3098 3098 3099 3100 3101 3102 3103 3102 3100 3100 3103 3105 3106 3108 3109 3110 3111 3112 3112 3114 3115 3116 3117 3118 3117 3117 3116 3115 3114 3114 3114 3114 3113 3113 3113 3112 3111 3111 3109 3108 3108 3109 3110 3111 3112 3113 3114 3116 3119 3121 3122 3123 3123 3124 3126 3126 3126 3125 3124 3123 3122 3121 3121 3120 3119 3119 3118 3118 3116 3116 3115
3076 3078 3082 3084 3085 3088 3090 3091 3091 3091 3091 3092 3093 3094 3096 3096 3096 3097 3098 3100 3101 3101 3100 3099 3100 3103 3104 3105 3106 3108 3109 3110 3110 3111 3112 3113 3114 3114 3115 3115 3115 3114 3112 3112 3111 3111 3110 3110 3110 3110 3110 3110 3110 3109 3108 3108 3108 3109 3109 3110 3111 3112 3114 3116 3118 3119 3120 3122 3123 3124 3123 3123 3122 3121 3120 3119 3118 3118 3117 3117 3116 3115 3114 3114 3113 3112
3075 3078 3080 3083 3086 3088 3090 3090 3091 3091 3091 3091 3091 3092 3093 3094 3094 3096 3097 3099 3099 3098 3098 3099 3100 3102 3103 3104 3105 3106 3107 3108 3109 3109 3110 3112 3112 3112 3112 3113 3113 3112 3110 3110 3109 3108 3107 3107 3107 3107 3108 3108 3108 3107 3107 3108 3108 3108 3108 3109 3110 3111 3113 3114 3116 3117 3119 3120 3120 3120 3120 3120 3120 3119 3118 3117 3116 3116 3115 3114 3113 3112 3111 3111 3110 3109
3077 3079 3081 3083 3086 3087 3087 3088 3090 3091 3090 3089 3089 3089 3090 3091 3093 3095 3097 3097 3097 3096 3097 3099 3100 3101 3103 3104 3104 3105 3106 3107 3108 3109 3109 3109 3110 3110 3110 3110 3110 3109 3108 3107 3106 3105 3105 3104 3104 3105 3105 3105 3105 3105 3105 3105 3106 3106 3107 3108 3109 3111 3113 3114 3116 3117 3117 3117 3117 3117 3117 3117 3117 3116 3116 3115 3113 3113 3111 3110 3110 3109 3108 3107 3106 3105
3077 3078 3080 3083 3086 3086 3085 3086 3088 3090 3089 3087 3087 3088 3088 3089 3091 3094 3095 3095 3095 3097 3098 3099 3100 3101 3102 3102 3103 3104 3105 3105 3106 3107 3107 3107 3107 3108 3107 3106 3106 3106 3106 3105 3103 3102 3101 3101 3101 3101 3101 3101 3102 3102 3102 3103 3103 3104 3106 3107 3109 3110 3112 3114 3115 3115 3115 3115 3115 3116 3116 3116 3115 3114 3113 3111 3110 3109 3108 3107 3107 3106 3105 3103 3102 3100
3076 3076 3078 3081 3084 3085 3084 3084 3086 3088 3088 3087 3087 3087 3088 3089 3090 3092 3094 3094 3095 3097 3098 3099 3100 3100 3100 3101 3102 3103 3103 3103 3103 3104 3104 3104 3104 3105 3104 3103 3103 3102 3103 3102 3100 3099 3098 3098 3097 3098 3098 3098 3099 3099 3100 3100 3101 3103 3104 3105 3107 3108 3110 3112 3113 3113 3113 3113 3113 3113 3113 3113 3112 3111 3109 3108 3106 3105 3105 3104 3103 3102 3100 3099 3097 3095
3074 3075 3077 3079 3082 3083 3084 3085 3085 3086 3087 3087 3087 3087 3088 3089 3090 3091 3092 3094 3095 3096 3096 3097 3098 3099 3099 3099 3101 3101 3101 3101 3101 3101 3101 3101 3101 3101 3100 3100 3099 3099 3099 3099 3098 3096 3096 3095 3095 3095 3096 3096 3096 3097 3098 3099 3101 3101 3102 3102 3104 3106 3108 3110 3111 3112 3111 3111 3111 3110 3109 3109 3108 3107 3106 3105 3104 3103 3102 3101 3099 3097 3095 3094 3092 3091
3072 3073 3075 3078 3080 3081 3082 3083 3084 3085 3085 3085 3086 3087 3089 3090 3090 3091 3092 3093 3094 3093 3094 3095 3096 3096 3097 3097 3098 3098 3098 3098 3098 3097 3097 3097 3097 3097 3097 3096 3096 3095 3095 3095 3095 3095 3094 3094 3094 3094 3094 3094 3095 3095 3096 3098 3098 3098 3099 3100 3102 3104 3106 3108 3109 3109 3108 3107 3107 3106 3105 3104 3103 3102 3102 3101 3099 3098 3096 3094 3093 3091 3090 3089 3088 3087
3071 3072 3074 3077 3079 3080 3080 3081 3083 3085 3085 3085 3085 3087 3088 3089 3090 3090 3091 3092 3091 3091 3092 3093 3094 3095 3095 3095 3095 3095 3095 3095 3095 3094 3093 3093 3093 3093 3093 3093 3093 3092 3092 3093 3093 3093 3092 3092 3092 3091 3092 3093 3093 3093 3093 3094 3094 3094 3096 3098 3100 3102 3104 3104 3105 3104 3103 3103 3102 3101 3100 3099 3097 3095 3094 3094 3092 3090 3089 3088 3087 3087 3086 3085 3084 3083
3070 3071 3072 3074 3076 3077 3078 3080 3081 3083 3085 3086 3086 3086 3087 3088 3089 3088 3088 3088 3089 3090 3091 3092 3092 3093 3093 3092 3092 3092 3092 3092 3092 3091 3090 3090 3090 3089 3089 3089 3089 3089 3090 3090 3090 3090 3090 3089 3089 3089 3090 3091 3090 3090 3091 3090 3090 3091 3094 3096 3097 3099 3100 3100 3100 3099 3097 3096 3095 3094 3093 3091 3089 3087 3086 3086 3085 3085 3084 3084 3084 3083 3082 3081 3080 3079